Location: Godiavel Galaoual
(15.2485°N, 12.6604°W)
Time: 03:06:38
(UTC+00:00)

N. Korean satellite - Pass Details

Date: 03 December 2021
Orbit: 447 x 491 km, 97.3° (Epoch: 22 January)

Event Time Altitude Azimuth Distance (km) Brightness Sun altitude
Rises 05:25:14 0° 24° (NNE) 2,437 10.2 -22.8°
Reaches altitude 10° 05:27:23 10° 35° (NE) 1,566 9.3 -22.3°
Maximum altitude 05:30:25 31° 100° (E) 800 8.3 -21.6°
Drops below altitude 10° 05:33:27 10° 164° (SSE) 1,573 9.6 -20.9°
Sets 05:35:37 0° 175° (S) 2,449 10.5 -20.4°
